カタログに戻る

KUIPER-00296

運用中通信LEO
NORAD 68595·PAYLOAD·🇺🇸 United States

打ち上げ Apr 4, 2026 から Cape Canaveral Space Force Station

Loading…

次のパス (今後24時間)

TLE

最新Source: CelesTrak SupGP

元期: Sep 14, 2026, 21:20 UTC

1 68595C 26072Y   26257.88935185  .00003159  00000+0  41359-3 0  2578
2 68595  51.8993 121.5041 0000819 106.1794 318.3736 14.79922245    17

AllMySatでKUIPER-00296をリアルタイム追跡

Download on the App Store